"Pseudo-MPEC" for ZTF0Czw

Created 2020 Feb 21 4:07:21 UT using Find_Orb

Click here for an explanation of pseudo-MPECs

 
 Astrometry: 
     ZTF0Czw  C2020 01 31.29127008 28 28.24 +19 15 35.4    ~2457 20.02rUNEOCPI41
     ZTF0Czw  C2020 01 31.29456908 28 28.36 +19 15 35.3    ~2457 19.88rUNEOCPI41
     ZTF0Czw  C2020 02 01.28904108 28 56.17 +19 13 43.4    ~2457 20.21rUNEOCPI41
     ZTF0Czw  C2020 02 01.29084008 28 56.25 +19 13 43.4    ~2457 20.36rUNEOCPI41

Station data:
(I41) Palomar Mountain--ZTF  (N33.357340 W116.859780)  US/California. 1.2-m
   f/2.44 Oschin Schmidt + CCD.

Orbital elements:  ZTF0Czw
   Perihelion 2020 Feb 1.771029 +/- 41.7 TT = 18:30:16 (JD 2458881.271029)
Epoch 2020 Feb  1.0 TT = JDT 2458880.5   Earth MOID: 0.3118   Ma: 0.0158
M 359.77868414 +/- 13               (J2000 ecliptic)          AutoNEOCP
n   0.28703959 +/- 0.238            Peri.  146.40099 +/- 80
a   2.27601357 +/- 1.25             Node   343.95157 +/- 48
e   0.4301598 +/- 0.239             Incl.    0.07598 +/- 0.037
P   3.43                   H 21.9   G  0.15   U 11.8  SR
q 1.29696389 +/- 0.279    Q 3.25506324 +/- 62.9
From 4 observations 2020 Jan. 31-Feb. 1 (24.0 hr); mean residual 0".29
Residuals in arcseconds: 
200131 I41  .45-  .12-    200201 I41  .34-  .10-    
200131 I41  .45+  .12+    200201 I41  .33+  .10+    

Ephemerides (geocentric):
Date (UTC) HH   RA              Dec         delta   r     elong  mag " sig PA
---- -- -- --  -------------   -----------  ------ ------ -----  --- ---- ---
2020 02 21 04  08 42 44.773   +18 17 44.70  .34349 1.3111 156.5 21.1  41d  14
2020 02 21 05  08 42 47.184   +18 17 34.76  .34360 1.3111 156.5 21.1  41d  14
2020 02 21 06  08 42 49.598   +18 17 24.81  .34372 1.3112 156.5 21.1  41d  14
2020 02 21 07  08 42 52.016   +18 17 14.84  .34383 1.3112 156.4 21.1  41d  14
2020 02 21 08  08 42 54.437   +18 17 04.86  .34395 1.3113 156.4 21.1  41d  14
2020 02 21 09  08 42 56.861   +18 16 54.86  .34406 1.3114 156.4 21.1  41d  14
2020 02 21 10  08 42 59.288   +18 16 44.86  .34418 1.3114 156.3 21.1  41d  14
2020 02 21 11  08 43 01.718   +18 16 34.83  .34429 1.3115 156.3 21.1  41d  14
2020 02 21 12  08 43 04.152   +18 16 24.80  .34441 1.3115 156.3 21.1  41d  14
2020 02 21 13  08 43 06.588   +18 16 14.74  .34452 1.3116 156.2 21.1  41d  14
2020 02 21 14  08 43 09.028   +18 16 04.68  .34464 1.3117 156.2 21.1  41d  14
2020 02 21 15  08 43 11.471   +18 15 54.60  .34476 1.3117 156.2 21.1  41d  14
2020 02 21 16  08 43 13.917   +18 15 44.51  .34487 1.3118 156.2 21.1  41d  14
2020 02 21 17  08 43 16.367   +18 15 34.40  .34499 1.3118 156.1 21.2  41d  14
2020 02 21 18  08 43 18.819   +18 15 24.28  .34510 1.3119 156.1 21.2  41d  14
2020 02 21 19  08 43 21.275   +18 15 14.14  .34522 1.3120 156.1 21.2  41d  14
2020 02 21 20  08 43 23.734   +18 15 03.99  .34534 1.3120 156.0 21.2  41d  14
2020 02 21 21  08 43 26.197   +18 14 53.82  .34546 1.3121 156.0 21.2  41d  14
2020 02 21 22  08 43 28.662   +18 14 43.65  .34557 1.3122 156.0 21.2  41d  14
2020 02 21 23  08 43 31.130   +18 14 33.45  .34569 1.3122 155.9 21.2  41d  14
2020 02 22 00  08 43 33.602   +18 14 23.25  .34581 1.3123 155.9 21.2  41d  14
2020 02 22 01  08 43 36.077   +18 14 13.02  .34593 1.3123 155.9 21.2  41d  14
2020 02 22 02  08 43 38.555   +18 14 02.79  .34605 1.3124 155.8 21.2  41d  14
2020 02 22 03  08 43 41.037   +18 13 52.54  .34617 1.3125 155.8 21.2  42d  14
2020 02 22 04  08 43 43.521   +18 13 42.27  .34628 1.3125 155.8 21.2  42d  14
2020 02 22 05  08 43 46.009   +18 13 31.99  .34640 1.3126 155.7 21.2  42d  14
2020 02 22 06  08 43 48.500   +18 13 21.70  .34652 1.3127 155.7 21.2  42d  14
2020 02 22 07  08 43 50.994   +18 13 11.39  .34664 1.3127 155.7 21.2  42d  14
2020 02 22 08  08 43 53.492   +18 13 01.07  .34676 1.3128 155.6 21.2  42d  14
2020 02 22 09  08 43 55.992   +18 12 50.73  .34688 1.3129 155.6 21.2  42d  14
2020 02 22 10  08 43 58.496   +18 12 40.38  .34700 1.3129 155.6 21.2  42d  14
2020 02 22 11  08 44 01.003   +18 12 30.02  .34712 1.3130 155.5 21.2  42d  14
2020 02 22 12  08 44 03.513   +18 12 19.64  .34724 1.3130 155.5 21.2  42d  14
2020 02 22 13  08 44 06.027   +18 12 09.25  .34736 1.3131 155.5 21.2  42d  14
2020 02 22 14  08 44 08.543   +18 11 58.84  .34748 1.3132 155.5 21.2  42d  14
2020 02 22 15  08 44 11.063   +18 11 48.42  .34760 1.3132 155.4 21.2  42d  14
2020 02 22 16  08 44 13.586   +18 11 37.98  .34773 1.3133 155.4 21.2  42d  14
2020 02 22 17  08 44 16.112   +18 11 27.53  .34785 1.3134 155.4 21.2  42d  14
2020 02 22 18  08 44 18.642   +18 11 17.06  .34797 1.3134 155.3 21.2  42d  14
2020 02 22 19  08 44 21.174   +18 11 06.58  .34809 1.3135 155.3 21.2  42d  14
2020 02 22 20  08 44 23.710   +18 10 56.09  .34821 1.3136 155.3 21.2  42d  14
2020 02 22 21  08 44 26.249   +18 10 45.58  .34834 1.3136 155.2 21.2  42d  14
2020 02 22 22  08 44 28.791   +18 10 35.05  .34846 1.3137 155.2 21.2  42d  14
2020 02 22 23  08 44 31.337   +18 10 24.52  .34858 1.3138 155.2 21.2  42d  14
2020 02 23 00  08 44 33.886   +18 10 13.96  .34870 1.3138 155.1 21.2  42d  14
2020 02 23 01  08 44 36.437   +18 10 03.40  .34883 1.3139 155.1 21.2  42d  14
2020 02 23 02  08 44 38.992   +18 09 52.82  .34895 1.3139 155.1 21.2  42d  14
2020 02 23 03  08 44 41.551   +18 09 42.22  .34907 1.3140 155.0 21.2  42d  14